Location: Bergnershof
(48.9468°N, 10.9431°E)
Time: 22:40:41
(UTC+00:00)

Cosmos 2219 Rocket - Pass Details

Date: 03 March 2021
Orbit: 826 x 848 km, 71.0° (Epoch: 13 April)

Event Time Altitude Azimuth Distance (km) Brightness Sun altitude
Rises 21:09:38 0° 249° (WSW) 3,364 5.6 -38.5°
Reaches altitude 10° 21:12:31 10° 263° (W) 2,437 4.9 -38.8°
Maximum altitude 21:17:01 24° 317° (NW) 1,649 4.2 -39.3°
Drops below altitude 10° 21:21:35 10° 11° (N) 2,457 4.9 -39.8°
Sets 21:24:30 0° 25° (NNE) 3,399 5.6 -40.2°
